Flag for Pakistan Weather past 2 weeks in Peshawar, Pakistan

Now
79 °F

Drizzle. Broken clouds.


Feels Like: 82 °F
Forecast: 80 / 91 °F
Wind: 5 mph from Northwest

Location: Peshawar Airport

Current Time: Jul 25, 2014 at 7:11:24 PM

Latest Report: Jul 25, 2014 at 6:00 PM


Visibility: 1 mi

Pressure: 29.59 "Hg

Humidity: 84%

Dew point: 73 °F

Location of PeshawarLocation

Historic Weather in Peshawar — Graph

°F

Peshawar temperature yesterday

Maximum temperature yesterday: 95 °F (at 12:00 PM)
Minimum temperature yesterday: 86 °F (at 5:00 AM)
Average temperature yesterday: 90 °F

Past Weeks' High & Low Weather Summary

 TemperatureHumidityPressure
High106 °F (Jul 11, 4:00 PM)100% (Jul 11, 7:00 AM)29.65 "Hg (Jul 11, 7:00 AM)
Low37 °F (Jul 11, 7:00 AM)27% (Jul 10, 5:00 PM)29.33 "Hg (Jul 15, 6:00 PM)
Average92 °F56%29.46 "Hg
* Reported Jul 10 5:00 PM — Jul 25 5:00 PM, Peshawar, Weather by CustomWeather, © 2014

Note: Actual official high and low records may vary slightly from our data, if they occured in-between our weather recording intervals... More about our weather records

Advertising

Peshawar weather history for previous 24 hours

 ConditionsComfort  
Time TempWeatherWind HumidityBarometerVisibility
5:00 PM
Jul 25
81 °FFog.7 mph84%29.59 "Hg1 mi
4:00 PM81 °FBroken clouds.5 mph79%29.62 "Hg2 mi
3:00 PM82 °FBroken clouds.7 mph79%29.62 "Hg2 mi
2:00 PM82 °FWarm.N/A79%29.62 "HgN/A
1:00 PM82 °FWarm.N/A79%29.65 "HgN/A
12:00 PM82 °FWarm.N/A79%29.65 "HgN/A
10:00 AM82 °FWarm.N/A79%29.65 "HgN/A
9:00 AM82 °FWarm.N/A79%29.62 "HgN/A
8:00 AM82 °FWarm.N/A79%29.62 "HgN/A
7:00 AM81 °FWarm.N/A79%29.59 "HgN/A
6:00 AM81 °FWarm.N/A79%29.56 "HgN/A
5:00 AM81 °FWarm.N/A79%29.56 "HgN/A
4:00 AM82 °FWarm.N/A74%29.56 "HgN/A
3:00 AM82 °FWarm.N/A74%29.56 "HgN/A
2:00 AM82 °FWarm.N/A74%29.56 "HgN/A
1:00 AM84 °FWarm.N/A70%29.56 "HgN/A
12:00 AM84 °FWarm.N/A70%29.56 "HgN/A
11:00 PM
Jul 24
86 °FWarm.N/A70%29.56 "HgN/A
10:00 PM86 °FWarm.N/A70%29.56 "HgN/A
9:00 PM86 °FWarm.N/A70%29.53 "HgN/A
8:00 PM88 °FWarm.N/A70%29.50 "HgN/A
7:00 PM88 °FWarm.N/A70%29.50 "HgN/A
Weather by CustomWeather, © 2014

See weather overviewHow to use our weather pages